Weather History for KPPO - December, 2012

Change the Weather History Date:

Sunday, December 9, 2012

  Actual Average (KVPZ) Record (KVPZ)
Temperature  
Mean Temperature 36 °F 30 °F  
Max Temperature 41 °F 36 °F 52 °F (1999)
Min Temperature 32 °F 23 °F -3 °F (2000)
Degree Days  
Heating Degree Days 28 35  
Month to date heating degree days 301  
Since 1 July heating degree days 1559  
Cooling Degree Days 0 0  
Month to date cooling degree days 0  
Year to date cooling degree days 713  
Moisture  
Dew Point 36 °F    
Average Humidity 95    
Maximum Humidity 100    
Minimum Humidity 89    
Precipitation  
Precipitation 0.02 in 0.07 in 0.76 in (2008)
Month to date precipitation 0.76  
Year to date precipitation 36.09  
Sea Level Pressure  
Sea Level Pressure 29.86 in    
Wind  
Wind Speed 10 mph (SE)    
Max Wind Speed 16 mph    
Max Gust Speed 21 mph    
Visibility 6 miles    
Events Rain    
T = Trace of Precipitation, MM = Missing Value Source: NWS Daily Summary

Daily Weather History Graph

Daily Weather History Graph

Search for Another Location

Airport or City:

Trip Planner

Search our weather history database for the weather conditions in past years. The results will help you decide how hot, cold, wet, or windy it might be!

Date:

Astronomy

Dec. 09, 2012 Rise Set
Actual Time 7:02 AM CST 4:16 PM CST
Civil Twilight 6:30 AM CST 4:48 PM CST
Nautical Twilight 5:56 AM CST 5:22 PM CST
Astronomical Twilight 5:22 AM CST 5:56 PM CST
Moon 2:32 AM CST (12/9) 1:25 PM CST (12/9)
Length of Visible Light 10h 17m
Length of Day
9h 14m
Waning Crescent, 18% of the Moon is Illuminated
Dec 9
Waning Crescent
Dec 13
New
Dec 19
First Quarter
Dec 28
Full
Jan 4
Last Quarter

Hourly Weather History & Observations

Time (CST) Temp. Windchill Dew Point Humidity Pressure Visibility Wind Dir Wind Speed Gust Speed Precip Events Conditions
12:15 AM 32.9 °F 25.3 °F 30.0 °F 89% 30.11 in 10.0 mi East 9.2 mph - N/A   Mostly Cloudy
12:35 AM 32.9 °F 24.7 °F 30.2 °F 90% 30.10 in 10.0 mi East 10.4 mph - N/A   Overcast
12:55 AM 32.9 °F 24.1 °F 30.2 °F 90% 30.09 in 10.0 mi East 11.5 mph - N/A   Overcast
1:15 AM 32.9 °F 23.7 °F 30.6 °F 91% 30.08 in 10.0 mi East 12.7 mph - N/A   Overcast
1:35 AM 32.9 °F 24.1 °F 30.6 °F 91% 30.08 in 10.0 mi East 11.5 mph 16.1 mph N/A   Overcast
1:55 AM 33.1 °F 24.9 °F 30.9 °F 92% 30.09 in 10.0 mi East 10.4 mph - N/A   Overcast
2:15 AM 33.3 °F 26.4 °F 31.1 °F 92% 30.09 in 10.0 mi East 8.1 mph - N/A   Overcast
2:35 AM 33.4 °F 25.4 °F 31.1 °F 91% 30.09 in 10.0 mi ESE 10.4 mph - N/A   Overcast
2:55 AM 33.8 °F 25.3 °F 31.1 °F 90% 30.08 in 10.0 mi ESE 11.5 mph - N/A   Overcast
3:15 AM 33.8 °F 25.3 °F 31.1 °F 90% 30.08 in 10.0 mi East 11.5 mph - N/A   Overcast
3:35 AM 33.8 °F 24.8 °F 31.3 °F 90% 30.07 in 10.0 mi ESE 12.7 mph - N/A   Overcast
3:55 AM 33.8 °F 24.3 °F 31.5 °F 91% 30.05 in 10.0 mi ESE 13.8 mph - N/A   Overcast
4:15 AM 33.8 °F 23.9 °F 31.6 °F 92% 30.06 in 10.0 mi ESE 15.0 mph - N/A   Overcast
4:35 AM 34.0 °F 25.0 °F 31.8 °F 92% 30.04 in 7.0 mi ESE 12.7 mph 17.3 mph N/A   Overcast
4:55 AM 34.0 °F 24.2 °F 31.8 °F 92% 30.03 in 7.0 mi East 15.0 mph 20.7 mph N/A   Overcast
5:15 AM 34.2 °F 24.4 °F 32.0 °F 92% 30.03 in 7.0 mi East 15.0 mph 18.4 mph N/A   Overcast
5:55 AM 34.7 °F 25.5 °F 32.0 °F 90% 30.02 in 7.0 mi ESE 13.8 mph 18.4 mph N/A   Overcast
6:15 AM 34.7 °F 25.9 °F 32.0 °F 90% 30.01 in 7.0 mi East 12.7 mph - N/A   Overcast
6:35 AM 34.9 °F 25.7 °F 32.2 °F 90% 30.00 in 7.0 mi East 13.8 mph - N/A   Overcast
6:55 AM 35.1 °F 26.4 °F 32.4 °F 90% 29.99 in 7.0 mi ESE 12.7 mph 18.4 mph N/A   Overcast
7:15 AM 35.2 °F 27.1 °F 32.5 °F 90% 29.99 in 10.0 mi ESE 11.5 mph - N/A   Overcast
7:35 AM 35.4 °F 26.8 °F 32.9 °F 91% 29.98 in 7.0 mi ESE 12.7 mph - N/A   Light Drizzle
7:55 AM 35.6 °F 28.0 °F 33.3 °F 91% 29.97 in 7.0 mi East 10.4 mph - N/A   Light Drizzle
8:15 AM 36.0 °F 26.7 °F 33.4 °F 91% 29.96 in 7.0 mi ESE 15.0 mph 18.4 mph N/A   Light Drizzle
8:35 AM 36.5 °F 27.8 °F 33.8 °F 90% 29.96 in 7.0 mi ESE 13.8 mph - N/A   Light Drizzle
8:55 AM 36.3 °F 26.8 °F 34.2 °F 92% 29.95 in 4.0 mi ESE 16.1 mph - N/A Rain Light Rain
9:35 AM 36.5 °F 28.2 °F 35.1 °F 95% 29.93 in 7.0 mi ESE 12.7 mph 18.4 mph 0.02 in Rain Light Rain
9:55 AM 36.5 °F 28.2 °F 35.2 °F 95% 29.92 in 5.0 mi ESE 12.7 mph - 0.02 in Rain Light Rain
10:15 AM 36.7 °F 28.4 °F 35.6 °F 96% 29.91 in 7.0 mi ESE 12.7 mph 19.6 mph N/A   Overcast
10:35 AM 36.9 °F 29.1 °F 35.6 °F 95% 29.90 in 7.0 mi ESE 11.5 mph - N/A Rain Light Rain
10:55 AM 37.0 °F 28.5 °F 35.8 °F 95% 29.87 in 4.0 mi ESE 13.8 mph - N/A Rain Rain
11:15 AM 37.4 °F 29.3 °F 36.5 °F 97% 29.86 in 5.0 mi ESE 12.7 mph - N/A Rain Light Rain
11:35 AM 37.4 °F 29.3 °F 36.5 °F 97% 29.84 in 7.0 mi ESE 12.7 mph 17.3 mph N/A   Light Drizzle
11:55 AM 37.6 °F 29.6 °F 36.7 °F 97% 29.83 in 7.0 mi SE 12.7 mph - N/A   Overcast
12:15 PM 37.8 °F 31.3 °F 36.9 °F 97% 29.82 in 2.5 mi SE 9.2 mph - N/A Rain Light Rain
12:35 PM 37.8 °F 30.7 °F 37.0 °F 97% 29.80 in 5.0 mi SE 10.4 mph - N/A   Light Drizzle
12:55 PM 37.8 °F 30.2 °F 37.0 °F 97% 29.79 in 3.0 mi SE 11.5 mph - N/A   Drizzle
1:15 PM 38.3 °F 32.5 °F 37.6 °F 97% 29.78 in 3.0 mi SE 8.1 mph - N/A   Light Drizzle
1:35 PM 38.3 °F 32.5 °F 37.9 °F 99% 29.76 in 3.0 mi SE 8.1 mph - N/A   Overcast
1:55 PM 38.5 °F 32.7 °F 38.3 °F 99% 29.74 in 1.8 mi ESE 8.1 mph - N/A   Overcast
2:15 PM 38.8 °F 34.6 °F 38.5 °F 99% 29.74 in 2.5 mi SE 5.8 mph - N/A   Overcast
2:35 PM 39.2 °F 35.9 °F 38.8 °F 99% 29.76 in 2.0 mi SSE 4.6 mph - N/A   Overcast
2:55 PM 39.4 °F 35.2 °F 39.2 °F 99% 29.75 in 2.0 mi SE 5.8 mph - N/A   Overcast
3:15 PM 39.6 °F 36.3 °F 39.4 °F 99% 29.75 in 1.5 mi SE 4.6 mph - N/A   Overcast
3:35 PM 39.7 °F 37.6 °F 39.6 °F 99% 29.76 in 1.5 mi South 3.5 mph - N/A   Overcast
3:55 PM 39.9 °F 37.8 °F 39.6 °F 99% 29.74 in 1.2 mi SSE 3.5 mph - N/A   Light Drizzle
4:15 PM 40.1 °F 38.0 °F 39.7 °F 99% 29.75 in 1.2 mi SSE 3.5 mph - N/A Rain Light Rain
4:35 PM 40.1 °F - 40.1 °F 100% 29.75 in 1.2 mi Calm Calm - N/A   Overcast
4:55 PM 40.1 °F 38.0 °F 40.1 °F 100% 29.74 in 1.0 mi South 3.5 mph - N/A   Overcast
5:15 PM 40.3 °F - 40.1 °F 99% 29.73 in 1.0 mi Calm Calm - N/A   Overcast
5:35 PM 40.5 °F - 40.3 °F 99% 29.72 in 1.0 mi Calm Calm - N/A   Overcast
5:55 PM 40.6 °F - 40.5 °F 99% 29.72 in 1.0 mi Calm Calm - N/A   Overcast
6:15 PM 41.2 °F 38.2 °F 41.2 °F 100% 29.72 in 1.8 mi SSW 4.6 mph - N/A   Overcast
6:35 PM 41.5 °F 37.8 °F 41.5 °F 100% 29.72 in 1.8 mi SW 5.8 mph - N/A   Overcast
6:55 PM 41.5 °F 39.6 °F 41.5 °F 100% 29.72 in 1.5 mi SW 3.5 mph - N/A   Overcast
7:15 PM 41.9 °F 39.0 °F 41.9 °F 100% 29.71 in 1.2 mi West 4.6 mph - N/A   Overcast
7:35 PM 41.9 °F 37.5 °F 41.9 °F 100% 29.71 in 2.0 mi West 6.9 mph - N/A   Overcast
7:55 PM 41.9 °F 38.2 °F 41.9 °F 100% 29.71 in 4.0 mi West 5.8 mph - N/A   Overcast
8:15 PM 41.5 °F 35.9 °F 41.5 °F 100% 29.71 in 5.0 mi West 9.2 mph - N/A   Overcast
8:35 PM 41.0 °F 35.2 °F 41.0 °F 100% 29.70 in 5.0 mi West 9.2 mph - N/A   Overcast
8:55 PM 40.6 °F 33.8 °F 40.6 °F 100% 29.71 in 7.0 mi West 11.5 mph - N/A   Overcast
9:15 PM 40.1 °F 32.0 °F 40.1 °F 100% 29.71 in 10.0 mi West 15.0 mph - N/A   Overcast
9:35 PM 40.1 °F 33.6 °F 40.1 °F 100% 29.70 in 10.0 mi West 10.4 mph 16.1 mph N/A   Overcast
9:55 PM 40.1 °F 34.1 °F 39.4 °F 97% 29.70 in 10.0 mi West 9.2 mph - N/A   Overcast
10:15 PM 39.9 °F 32.5 °F 39.2 °F 97% 29.71 in 10.0 mi West 12.7 mph - N/A   Overcast
10:35 PM 39.4 °F 33.2 °F 37.9 °F 95% 29.71 in 10.0 mi West 9.2 mph - N/A   Overcast
10:55 PM 39.2 °F 32.5 °F 37.4 °F 93% 29.71 in 10.0 mi West 10.4 mph - N/A   Overcast
11:15 PM 38.7 °F 30.5 °F 36.7 °F 93% 29.70 in 10.0 mi West 13.8 mph - N/A   Overcast
11:35 PM 38.5 °F 30.7 °F 36.5 °F 93% 29.71 in 10.0 mi West 12.7 mph 19.6 mph N/A   Overcast
11:55 PM 37.8 °F 29.4 °F 36.5 °F 95% 29.71 in 10.0 mi West 13.8 mph - N/A   Overcast